Weather History for KCXP - May, 2014

Change the Weather History Date:

Tuesday, May 6, 2014

  Actual Average Record
Temperature  
Mean Temperature 47 °F -  
Max Temperature 57 °F 67 °F 66 °F (2015)
Min Temperature 37 °F 36 °F 32 °F (2012)
Degree Days  
Heating Degree Days 18    
Moisture  
Dew Point 25 °F    
Average Humidity 45    
Maximum Humidity 93    
Minimum Humidity 20    
Precipitation  
Precipitation 0.00 in - - ()
Sea Level Pressure  
Sea Level Pressure 29.86 in    
Wind  
Wind Speed 10 mph (NNW)    
Max Wind Speed 24 mph    
Max Gust Speed 36 mph    
Visibility 10 miles    
Events Rain    
Averages and records for this station are not official NWS values.
T = Trace of Precipitation, MM = Missing Value Source: NWS Daily Summary

Daily Weather History Graph

Daily Weather History Graph

Search for Another Location

Airport or City:

Trip Planner

Search our weather history database for the weather conditions in past years. The results will help you decide how hot, cold, wet, or windy it might be!

Date:

Astronomy

May. 06, 2014 Rise Set
Actual Time 5:54 AM PDT 7:57 PM PDT
Civil Twilight 5:25 AM PDT 8:26 PM PDT
Nautical Twilight 4:49 AM PDT 9:02 PM PDT
Astronomical Twilight 4:10 AM PDT 9:41 PM PDT
Moon 12:14 PM PDT (5/6) 1:19 AM PDT (5/6)
Length of Visible Light 15h 01m
Length of Day
14h 02m
Waxing Crescent, 47% of the Moon is Illuminated
May 6
Waxing Crescent
May 6
First Quarter
May 14
Full
May 21
Last Quarter
May 28
New

Hourly Weather History & Observations

Time (PDT) Temp. Windchill Dew Point Humidity Pressure Visibility Wind Dir Wind Speed Gust Speed Precip Events Conditions
12:15 AM 41.0 °F 38.0 °F 26.6 °F 57% 29.86 in 10.0 mi ENE 4.6 mph - N/A   Mostly Cloudy
12:35 AM 42.8 °F - 26.6 °F 53% 29.86 in 10.0 mi Calm Calm - N/A   Overcast
12:55 AM 44.6 °F 42.2 °F 26.6 °F 49% 29.85 in 10.0 mi SSW 4.6 mph - N/A   Overcast
4:55 AM 37.4 °F - 35.6 °F 93% 29.83 in 10.0 mi Calm Calm - N/A   Overcast
5:15 AM 39.2 °F - 35.6 °F 87% 29.83 in 10.0 mi Calm Calm - N/A   Overcast
5:35 AM 39.2 °F - 35.6 °F 87% 29.83 in 10.0 mi Calm Calm - N/A   Overcast
5:55 AM 39.2 °F - 35.6 °F 87% 29.83 in 10.0 mi Calm Calm - N/A   Overcast
6:15 AM 39.2 °F - 35.6 °F 87% 29.83 in 10.0 mi Calm Calm - N/A   Overcast
6:35 AM 39.2 °F 34.2 °F 32.0 °F 75% 29.84 in 10.0 mi NW 6.9 mph - N/A   Mostly Cloudy
7:15 AM 41.0 °F - 32.0 °F 70% 29.84 in 10.0 mi Calm Calm - N/A   Overcast
7:35 AM 41.0 °F 38.0 °F 32.0 °F 70% 29.84 in 10.0 mi WNW 4.6 mph - N/A   Overcast
7:55 AM 41.0 °F 33.9 °F 32.0 °F 70% 29.85 in 10.0 mi NW 12.7 mph 19.6 mph N/A   Mostly Cloudy
8:15 AM 41.0 °F 35.2 °F 32.0 °F 70% 29.85 in 10.0 mi NNE 9.2 mph 17.3 mph N/A   Overcast
8:35 AM 41.0 °F 33.9 °F 33.8 °F 76% 29.85 in 10.0 mi North 12.7 mph - N/A   Overcast
8:55 AM 41.0 °F 33.5 °F 33.8 °F 76% 29.85 in 10.0 mi NNW 13.8 mph 23.0 mph N/A   Overcast
9:15 AM 41.0 °F 31.6 °F 33.8 °F 76% 29.84 in 9.0 mi North 20.7 mph 26.5 mph N/A Rain Light Rain
9:35 AM 44.6 °F 36.6 °F 32.0 °F 61% 29.84 in 10.0 mi North 19.6 mph 28.8 mph N/A   Overcast
9:55 AM 44.6 °F 36.6 °F 32.0 °F 61% 29.85 in 10.0 mi North 19.6 mph 28.8 mph N/A   Overcast
10:15 AM 46.4 °F 38.3 °F 32.0 °F 57% 29.84 in 10.0 mi North 23.0 mph 29.9 mph N/A   Overcast
10:35 AM 46.4 °F 38.1 °F 32.0 °F 57% 29.85 in 10.0 mi North 24.2 mph 35.7 mph N/A   Mostly Cloudy
10:55 AM 44.6 °F 36.6 °F 32.0 °F 61% 29.86 in 10.0 mi North 19.6 mph 29.9 mph N/A   Mostly Cloudy
11:15 AM 46.4 °F 38.7 °F 32.0 °F 57% 29.87 in 10.0 mi NNW 20.7 mph 28.8 mph N/A   Overcast
11:35 AM 46.4 °F 39.8 °F 30.2 °F 53% 29.87 in 10.0 mi North 16.1 mph 31.1 mph N/A   Overcast
11:55 AM 48.2 °F - 30.2 °F 50% 29.87 in 10.0 mi NNW 23.0 mph 32.2 mph N/A   Overcast
12:15 PM 48.2 °F - 28.4 °F 46% 29.87 in 10.0 mi NNW 23.0 mph 32.2 mph N/A   Overcast
12:35 PM 50.0 °F - 28.4 °F 43% 29.86 in 10.0 mi North 20.7 mph 31.1 mph N/A   Mostly Cloudy
12:55 PM 50.0 °F - 28.4 °F 43% 29.86 in 10.0 mi NNW 21.9 mph 28.8 mph N/A   Mostly Cloudy
1:15 PM 51.8 °F - 24.8 °F 35% 29.85 in 10.0 mi NNW 20.7 mph 33.4 mph N/A   Scattered Clouds
1:35 PM 53.6 °F - 24.8 °F 33% 29.85 in 10.0 mi NNW 23.0 mph 28.8 mph N/A   Clear
1:55 PM 53.6 °F - 24.8 °F 33% 29.85 in 10.0 mi NNW 15.0 mph 28.8 mph N/A   Clear
2:15 PM 55.4 °F - 23.0 °F 29% 29.85 in 10.0 mi NNW 17.3 mph 26.5 mph N/A   Clear
2:35 PM 53.6 °F - 23.0 °F 30% 29.85 in 10.0 mi NNW 17.3 mph 27.6 mph N/A   Partly Cloudy
2:55 PM 55.4 °F - 23.0 °F 29% 29.84 in 10.0 mi NNW 18.4 mph 26.5 mph N/A   Clear
3:15 PM 55.4 °F - 21.2 °F 26% 29.84 in 10.0 mi North 13.8 mph 26.5 mph N/A   Partly Cloudy
3:35 PM 55.4 °F - 19.4 °F 25% 29.84 in 10.0 mi North 12.7 mph 23.0 mph N/A   Scattered Clouds
3:55 PM 57.2 °F - 17.6 °F 21% 29.84 in 10.0 mi NNW 16.1 mph - N/A   Scattered Clouds
4:15 PM 55.4 °F - 17.6 °F 23% 29.84 in 10.0 mi NNW 13.8 mph 24.2 mph N/A   Mostly Cloudy
4:35 PM 55.4 °F - 15.8 °F 21% 29.84 in 10.0 mi NNW 18.4 mph 27.6 mph N/A   Mostly Cloudy
4:55 PM 55.4 °F - 15.8 °F 21% 29.84 in 10.0 mi North 13.8 mph 25.3 mph N/A   Mostly Cloudy
5:15 PM 55.4 °F - 17.6 °F 23% 29.85 in 10.0 mi NNW 13.8 mph 24.2 mph N/A   Overcast
5:35 PM 57.2 °F - 17.6 °F 21% 29.84 in 10.0 mi North 11.5 mph 20.7 mph N/A   Overcast
5:55 PM 57.2 °F - 15.8 °F 20% 29.84 in 10.0 mi NW 13.8 mph 18.4 mph N/A   Overcast
6:15 PM 55.4 °F - 17.6 °F 23% 29.84 in 10.0 mi NW 16.1 mph 23.0 mph N/A   Mostly Cloudy
6:35 PM 55.4 °F - 17.6 °F 23% 29.85 in 10.0 mi North 9.2 mph 21.9 mph N/A   Mostly Cloudy
6:55 PM 55.4 °F - 17.6 °F 23% 29.85 in 10.0 mi North 15.0 mph 19.6 mph N/A   Partly Cloudy
7:15 PM 55.4 °F - 15.8 °F 21% 29.85 in 10.0 mi NNW 16.1 mph 21.9 mph N/A   Mostly Cloudy
7:35 PM 53.6 °F - 17.6 °F 24% 29.86 in 10.0 mi NW 16.1 mph 20.7 mph N/A   Mostly Cloudy
7:55 PM 53.6 °F - 17.6 °F 24% 29.86 in 10.0 mi NW 11.5 mph 16.1 mph N/A   Partly Cloudy
8:15 PM 53.6 °F - 17.6 °F 24% 29.87 in 10.0 mi NNW 11.5 mph 16.1 mph N/A   Scattered Clouds
8:35 PM 51.8 °F - 17.6 °F 26% 29.87 in 10.0 mi NNW 6.9 mph - N/A   Overcast
8:55 PM 51.8 °F - 17.6 °F 26% 29.88 in 10.0 mi NW 4.6 mph - N/A   Overcast
9:15 PM 50.0 °F - 17.6 °F 28% 29.89 in 10.0 mi North 8.1 mph - N/A   Overcast
9:35 PM 50.0 °F - 17.6 °F 28% 29.89 in 10.0 mi North 6.9 mph - N/A   Overcast
10:15 PM 48.2 °F - 19.4 °F 32% 29.90 in 10.0 mi NW 3.5 mph - N/A   Overcast
10:35 PM 48.2 °F - 19.4 °F 32% 29.90 in 10.0 mi Calm Calm - N/A   Overcast
10:55 PM 46.4 °F - 19.4 °F 34% 29.89 in 10.0 mi Calm Calm - N/A   Mostly Cloudy
11:15 PM 44.6 °F 40.2 °F 19.4 °F 37% 29.89 in 10.0 mi North 8.1 mph - N/A   Mostly Cloudy
11:35 PM 44.6 °F 41.4 °F 19.4 °F 37% 29.89 in 10.0 mi NNW 5.8 mph - N/A   Mostly Cloudy
11:55 PM 46.4 °F 45.2 °F 19.4 °F 34% 29.89 in 10.0 mi West 3.5 mph - N/A   Overcast